This is the latest recevied weather packets stored in our database for station/object OK1FET-15. If no packets are shown the sender has not sent any weather packets the latest 10 day(s).
| Time | Temp. | Humidity | Pressure | Rain* | Wind** | Luminosity | Snow |
|---|---|---|---|---|---|---|---|
| 1777997328 | 22.22° C | 43% | 1003.9 hPa | - | - | - | - |
| 1777997020 | 22.78° C | 42% | 1004 hPa | - | - | - | - |
| 1777996712 | 22.78° C | 42% | 1004 hPa | - | - | - | - |
| 1777996404 | 22.78° C | 42% | 1004 hPa | - | - | - | - |
| 1777996097 | 22.78° C | 43% | 1004.1 hPa | - | - | - | - |
| 1777995788 | 22.78° C | 43% | 1004.1 hPa | - | - | - | - |
| 1777995481 | 22.78° C | 42% | 1004.2 hPa | - | - | - | - |
| 1777995173 | 23.33° C | 43% | 1004.3 hPa | - | - | - | - |
| 1777994864 | 23.33° C | 43% | 1004.4 hPa | - | - | - | - |
| 1777994556 | 23.33° C | 43% | 1004.4 hPa | - | - | - | - |
| 1777994249 | 22.78° C | 43% | 1004.5 hPa | - | - | - | - |
| 1777993941 | 22.22° C | 44% | 1004.6 hPa | - | - | - | - |
| 1777993633 | 22.22° C | 43% | 1004.6 hPa | - | - | - | - |
| 1777993325 | 22.78° C | 43% | 1004.7 hPa | - | - | - | - |
| 1777993017 | 22.22° C | 43% | 1004.7 hPa | - | - | - | - |
| 1777992709 | 22.22° C | 43% | 1004.7 hPa | - | - | - | - |
| 1777992401 | 22.78° C | 42% | 1004.7 hPa | - | - | - | - |
| 1777992093 | 23.33° C | 41% | 1004.7 hPa | - | - | - | - |
| 1777991785 | 23.89° C | 41% | 1004.8 hPa | - | - | - | - |
| 1777991477 | 25° C | 41% | 1004.6 hPa | - | - | - | - |
| 1777991169 | 25° C | 41% | 1004.5 hPa | - | - | - | - |
| 1777990861 | 25° C | 40% | 1004.5 hPa | - | - | - | - |
| 1777990552 | 25° C | 41% | 1004.6 hPa | - | - | - | - |
| 1777989936 | 25° C | 40% | 1004.8 hPa | - | - | - | - |
| 1777989628 | 25.56° C | 39% | 1004.9 hPa | - | - | - | - |
* Rain since midnight (hover to see other rain measurements)
** Current wind speed in m/s (hover to see current wind gust speed)